Location: Bremen
(53.0793°N, 8.8017°E)
Time: 06:48:35
(UTC+01:00)

Tiros 1 - Pass Details

Date: 06 December 2021
Orbit: 629 x 664 km, 48.4° (Epoch: 25 January)

Event Time Altitude Azimuth Distance (km) Brightness Sun altitude
Rises 18:57:25 0° 231° (SW) 2,916 11.4 -24.0°
Reaches altitude 10° 18:59:54 10° 222° (SW) 2,015 10.3 -24.4°
Enters shadow 19:03:23 31° 176° (S) 1,110 8.3 -24.9°
